Orbital Elements at Epoch 2459000.5 (2020-May-31.0) TDB
Reference: JPL 11 (heliocentric ecliptic J2000)
Element | Value | Uncertainty (1-sigma) | Units |
e | .233214700377292 | 4.3343e-08 | |
a | 2.7846883170653 | 2.0733e-08 | au |
q | 2.135258065556771 | 1.2118e-07 | au |
i | 7.902017679969582 | 5.79e-06 | deg |
node | 355.5502138072126 | 4.4933e-05 | deg |
peri | 26.66704741352534 | 4.7593e-05 | deg |
M | 248.010458605995 | 1.8204e-05 | deg |
tp | 2459528.505299439129 (2021-Nov-10.00529944) | 8.9851e-05 | TDB |
period | 1697.31838734239 4.65 | 1.8956e-05 5.19e-08 | d yr |
n | .2120992753537993 | 2.3687e-09 | deg/d |
Q | 3.434118568573829 | 2.5568e-08 | au |
|
| | Orbit Determination Parameters
Additional Information
|